Location: Mercogliano
(40.9167°N, 14.7333°E)
Time: 07:58:12
(UTC+00:00)

CZ-2C R/B - Pass Details

Date: 16 January 2021
Orbit: 785 x 870 km, 98.2° (Epoch: 08 March)

Event Time Altitude Azimuth Distance (km) Brightness Sun altitude
Exits shadow 19:02:04 46° 284° (WNW) 1,132 3.6 -34.2°
Drops below altitude 10° 19:07:12 10° 218° (SW) 2,499 5.5 -35.1°
Sets 19:09:39 0° 212° (SSW) 3,438 6.2 -35.6°
